Back to catalog

STARLINK-6064

AliveCommunicationsVLEO
NORAD 56805·PAYLOAD·🇺🇸 United States

Launched May 31, 2023 from Vandenberg Space Force Base

Loading…

Next Passes (next 24 hours)

TLE

FreshSource: CelesTrak SupGP

Epoch: Sep 14, 2026, 21:05 UTC

1 56805C 23078AQ  26257.87895833  .00003239  00000+0  27133-3 0  2579
2 56805  70.0018 207.3919 0003322 265.9069  84.4166 14.98338839    16

Track STARLINK-6064 in real time with AllMySat

Download on the App Store